Weather reports worldwide

Advertisment
Macon, France (7385): temperature & dewpoint: 18.03.2019 17:00:00 - 24.03.2019 17:00:00 (CET)Macon, France (7385): temperature 5cm: 18.03.2019 17:00:00 - 24.03.2019 17:00:00 (CET)Macon, France (7385): temperature -20cm & temperature -100cm: 18.03.2019 17:00:00 - 24.03.2019 17:00:00 (CET)Macon, France (7385): wind speed & gusts: 18.03.2019 17:00:00 - 24.03.2019 17:00:00 (CET)Macon, France (7385): wind direction: 18.03.2019 17:00:00 - 24.03.2019 17:00:00 (CET)Macon, France (7385): reduced air pressure: 18.03.2019 17:00:00 - 24.03.2019 17:00:00 (CET)Macon, France (7385): visibility: 18.03.2019 17:00:00 - 24.03.2019 17:00:00 (CET)Macon, France (7385): sunshine duration: 18.03.2019 17:00:00 - 24.03.2019 17:00:00 (CET)Macon, France (7385): precipitation: 18.03.2019 17:00:00 - 24.03.2019 17:00:00 (CET)
Date & Time tt [°C] td [°C] tt 5cm [°C] tt -20cm [°C] tt -100cm [°C] ff [km/h] ff [kn] fx [km/h] fx [kn] dd ppp [hPa] vv [km] sd [min] rr [mm]
24.03.2019 17:00:00 17,2 5,8 19,5 10,7 9,5 19 11 30 16 WNW 1023,1 12 60 0,0
24.03.2019 16:00:00 18,3 5,5 22,4 10,5 9,4 13 7 26 14 NW 1022,9 12 60 0,0
24.03.2019 15:00:00 18,0 5,6 22,3 10,3 9,5 13 7 26 14 WNW 1023,4 10 60 0,0
24.03.2019 14:00:00 18,0 6,5 20,1 10,1 9,5 11 6 22 12 NW 1023,9 11 60 0,0
24.03.2019 13:00:00 17,9 6,7 19,7 9,9 9,4 11 6 20 11 NNW 1024,5 11 60 0,0
24.03.2019 12:00:00 16,0 6,1 21,8 9,8 9,4 3 2 11 6 N 1025,1 9 60 0,0
24.03.2019 11:00:00 14,0 6,4 19,3 9,8 9,5 5 3 11 6 SE 1025,7 10 60 0,0
24.03.2019 10:00:00 11,9 4,4 17,2 9,9 9,5 5 3 9 5 ESE 1026,2 12 60 0,0
24.03.2019 09:00:00 10,5 4,2 9,2 9,9 9,4 3 2 6 3 SSE 1026,2 12 60 0,0
24.03.2019 08:00:00 7,0 4,0 2,9 10,1 9,4 4 2 9 5 WNW 1026,6 8 60 0,0
24.03.2019 07:00:00 4,6 1,8 -0,3 10,1 9,4 8 5 11 6 W 1026,6 9 1 0,0
24.03.2019 06:00:00 4,5 1,3 0,4 10,3 9,4 2 1 16 9 SW 1026,3 8 0 0,0
24.03.2019 05:00:00 8,4 2,8 6,4 10,3 9,4 11 6 20 11 NW 1025,5 10 0 0,0
24.03.2019 04:00:00 8,4 2,8 5,1 10,4 9,4 11 6 16 9 NW 1025,3 11 0 0,0
24.03.2019 03:00:00 8,9 2,7 5,2 10,5 9,4 8 4 19 10 NW 1025,4 13 0 0,0
24.03.2019 02:00:00 9,8 2,9 7,2 10,5 9,4 10 6 19 10 NW 1025,5 13 0 0,0
24.03.2019 01:00:00 10,4 2,7 8,1 10,6 9,4 12 6 19 11 NW 1025,8 17 0 0,0
24.03.2019 00:00:00 10,5 2,8 7,6 10,6 9,4 13 7 21 11 WNW 1026,2 20 0 0,0
23.03.2019 23:00:00 11,8 2,5 9,4 10,7 9,4 13 7 19 10 NW 1025,8 20 0 0,0
23.03.2019 22:00:00 12,6 3,0 9,3 10,7 9,4 13 7 18 10 NW 1026,2 20 0 0,0
23.03.2019 21:00:00 12,3 3,5 8,5 10,7 9,4 13 7 17 9 NW 1026,2 20 0 0,0
23.03.2019 20:00:00 12,9 3,8 6,6 10,6 9,4 8 5 10 5 WNW 1025,9 20 0 0,0
23.03.2019 19:00:00 14,8 3,6 8,6 10,5 9,4 7 4 17 9 N 1025,4 20 34 0,0
23.03.2019 18:00:00 17,7 4,3 18,2 10,3 9,4 13 7 23 12 NNE 1025,0 20 60 0,0
23.03.2019 17:00:00 19,1 4,8 22,3 10,1 9,4 16 8 23 12 NNE 1025,0 20 60 0,0
23.03.2019 16:00:00 20,1 4,9 24,3 9,8 9,4 14 8 26 14 N 1025,2 19 60 0,0
23.03.2019 15:00:00 19,9 4,0 22,9 9,6 9,4 13 7 28 15 N 1025,7 18 60 0,0
23.03.2019 14:00:00 19,3 5,4 20,3 9,4 9,4 16 9 30 16 NNE 1026,4 18 60 0,0
23.03.2019 13:00:00 18,8 5,9 19,9 9,3 9,4 17 9 27 15 NE 1026,9 18 60 0,0
23.03.2019 12:00:00 18,1 6,0 23,5 9,1 9,4 9 5 16 9 ENE 1027,4 16 60 0,0
23.03.2019 11:00:00 16,1 6,8 20,3 9,1 9,4 5 3 11 6 ENE 1028,1 16 60 0,0
23.03.2019 10:00:00 12,7 4,4 17,3 9,2 9,4 5 3 9 5 E 1028,7 20 60 0,0
23.03.2019 09:00:00 11,4 3,9 10,0 9,2 9,4 4 2 6 3 ESE 1028,7 20 60 0,0
23.03.2019 08:00:00 8,2 2,6 3,1 9,4 9,4 5 3 15 8 WNW 1028,9 20 60 0,0
23.03.2019 07:00:00 5,4 0,8 -0,7 9,5 9,4 8 4 12 6 WNW 1029,0 20 0 0,0
23.03.2019 06:00:00 4,5 0,8 -0,6 9,6 9,4 3 2 6 3 NNW 1029,1 19 0 0,0
23.03.2019 05:00:00 5,1 1,8 0,3 9,6 9,4 5 3 9 5 N 1028,8 13 0 0,0
23.03.2019 04:00:00 5,2 2,0 2,1 9,7 9,4 6 3 16 9 NE 1028,8 15 0 0,0
23.03.2019 03:00:00 10,1 0,9 7,8 9,7 9,4 13 7 21 11 WNW 1028,2 20 0 0,0
23.03.2019 02:00:00 10,0 1,4 6,7 9,8 9,4 11 6 18 10 WNW 1028,4 20 0 0,0
23.03.2019 01:00:00 9,7 1,8 7,1 9,9 9,4 11 6 17 9 WNW 1028,4 20 0 0,0
23.03.2019 00:00:00 9,1 2,4 6,4 9,9 9,4 12 7 16 9 WNW 1028,7 20 0 0,0
22.03.2019 23:00:00 9,4 2,7 6,4 10,0 9,4 11 6 16 8 WNW 1028,7 19 0 0,0
22.03.2019 22:00:00 10,0 3,0 7,5 9,9 9,4 10 5 15 8 WNW 1028,7 20 0 0,0
22.03.2019 21:00:00 11,3 3,3 8,0 9,9 9,4 11 6 15 8 WNW 1028,1 20 0 0,0
22.03.2019 20:00:00 12,7 3,4 7,0 9,8 9,4 6 3 10 5 WNW 1027,9 19 0 0,0
22.03.2019 19:00:00 15,0 2,8 7,9 9,7 9,4 2 1 12 6 NNE 1027,5 20 33 0,0
22.03.2019 18:00:00 17,3 5,6 19,3 9,5 9,4 8 4 11 6 NNE 1027,0 20 60 0,0
22.03.2019 17:00:00 19,0 4,0 23,1 9,2 9,4 7 4 12 7 NE 1027,0 18 60 0,0
22.03.2019 16:00:00 19,1 2,9 23,3 9,0 9,4 8 4 14 8 ENE 1027,5 17 60 0,0
22.03.2019 15:00:00 18,8 3,8 23,4 8,7 9,4 4 2 16 9 NE 1028,1 17 60 0,0
22.03.2019 14:00:00 17,4 3,6 17,8 8,5 9,3 3 2 14 8 NE 1028,7 16 60 0,0
22.03.2019 13:00:00 15,7 3,5 17,9 8,4 9,4 6 3 13 7 ESE 1029,4 16 60 0,0
22.03.2019 12:00:00 14,1 4,1 18,8 8,3 9,4 7 4 14 8 SSE 1029,9 18 60 0,0
22.03.2019 11:00:00 11,6 2,9 17,3 8,3 9,4 7 4 11 6 SE 1030,7 18 60 0,0
22.03.2019 10:00:00 9,2 2,3 14,1 8,4 9,4 4 2 9 5 SSE 1031,1 19 60 0,0
22.03.2019 09:00:00 7,8 1,8 6,1 8,5 9,4 0 0 4 2 N 1031,1 14 60 0,0
22.03.2019 08:00:00 4,0 0,5 -3,0 8,6 9,4 0 0 4 2 N 1031,5 10 60 0,0
22.03.2019 07:00:00 0,1 -1,7 -4,1 8,7 9,4 0 0 3 2 N 1031,6 12 0 0,0
22.03.2019 06:00:00 0,7 -1,9 -3,6 8,9 9,4 2 1 5 3 NE 1031,1 14 0 0,0
22.03.2019 05:00:00 0,9 -2,2 -2,9 8,9 9,4 0 0 5 3 N 1030,7 20 0 0,0
22.03.2019 04:00:00 1,8 -1,6 -1,3 9,0 9,4 5 3 9 5 WNW 1030,6 20 0 0,0
22.03.2019 03:00:00 2,9 -1,3 -0,5 9,1 9,4 4 2 12 7 W 1030,6 20 0 0,0
22.03.2019 02:00:00 3,4 -1,0 -0,2 9,2 9,4 8 5 13 7 W 1030,8 20 0 0,0
22.03.2019 01:00:00 4,6 -0,8 2,6 9,3 9,3 8 4 14 8 W 1030,6 20 0 0,0
22.03.2019 00:00:00 5,6 -0,3 3,6 9,4 9,4 9 5 17 9 W 1030,4 19 0 0,0
21.03.2019 23:00:00 6,6 -0,2 4,6 9,4 9,4 9 5 16 8 WNW 1030,2 20 0 0,0
21.03.2019 22:00:00 6,6 0,1 4,8 9,5 9,4 11 6 16 8 WNW 1030,4 20 0 0,0
21.03.2019 21:00:00 7,7 0,4 5,1 9,4 9,4 9 5 15 8 WNW 1030,1 20 0 0,0
21.03.2019 20:00:00 9,5 0,4 3,4 9,4 9,4 9 5 12 7 NW 1029,9 20 0 0,0
21.03.2019 19:00:00 10,9 0,0 5,5 9,2 9,4 6 3 13 7 N 1029,7 20 31 0,0
21.03.2019 18:00:00 12,7 1,1 13,8 9,1 9,4 10 5 21 11 NNE 1029,2 20 60 0,0
21.03.2019 17:00:00 13,8 1,1 17,3 8,9 9,3 14 8 26 14 NNE 1028,9 19 60 0,0
21.03.2019 16:00:00 14,0 1,6 19,0 8,7 9,4 12 6 24 13 NNE 1029,1 20 60 0,0
21.03.2019 15:00:00 13,8 1,1 18,2 8,5 9,4 10 6 23 13 NE 1029,4 19 60 0,0
21.03.2019 14:00:00 13,1 1,7 14,8 8,3 9,4 14 8 22 12 NE 1029,8 19 60 0,0
21.03.2019 13:00:00 12,2 0,9 14,7 8,1 9,4 8 5 19 10 NE 1030,5 19 60 0,0
21.03.2019 12:00:00 11,0 1,0 16,8 8,1 9,4 11 6 22 12 NE 1030,8 20 60 0,0
21.03.2019 11:00:00 9,9 -0,3 16,8 8,1 9,4 7 4 15 8 NE 1031,1 20 60 0,0
21.03.2019 10:00:00 8,2 -0,3 12,9 8,1 9,4 8 4 18 10 N 1031,4 20 60 0,0
21.03.2019 09:00:00 6,7 -1,5 6,1 8,2 9,3 13 7 21 11 N 1031,7 20 60 0,0
21.03.2019 08:00:00 4,9 -2,0 0,9 8,3 9,4 9 5 15 8 NW 1031,9 19 54 0,0
21.03.2019 07:00:00 3,1 -2,6 0,4 8,4 9,4 7 4 20 11 NW 1031,6 20 0 0,0
21.03.2019 06:00:00 3,5 -2,5 1,6 8,5 9,4 12 7 21 11 NW 1031,1 20 0 0,0
21.03.2019 05:00:00 3,8 -2,4 1,8 8,6 9,4 12 6 21 11 NW 1030,9 20 0 0,0
21.03.2019 04:00:00 4,3 -2,3 2,0 8,7 9,4 11 6 22 12 NW 1030,8 20 0 0,0
21.03.2019 03:00:00 4,7 -2,2 2,0 8,8 9,4 8 4 17 9 NW 1031,1 20 0 0,0
21.03.2019 02:00:00 5,9 -2,0 2,8 8,8 9,4 6 3 23 13 NNW 1031,2 20 0 0,0
21.03.2019 01:00:00 6,7 -1,5 4,3 8,9 9,4 13 7 27 15 N 1031,1 20 0 0,0
21.03.2019 00:00:00 7,2 -1,2 5,0 8,9 9,4 13 7 26 14 NNW 1031,1 20 0 0,0
20.03.2019 23:00:00 8,1 -0,9 5,8 9,0 9,4 16 9 26 14 NNW 1031,2 20 0 0,0
20.03.2019 22:00:00 8,6 -1,3 6,4 9,0 9,4 15 8 28 15 N 1031,4 20 0 0,0
20.03.2019 21:00:00 9,6 -1,5 7,6 9,0 9,4 20 11 36 19 N 1031,3 20 0 0,0
20.03.2019 20:00:00 10,1 -1,6 7,6 8,9 9,4 19 10 30 16 N 1031,1 20 0 0,0
20.03.2019 19:00:00 10,8 -1,6 8,4 8,9 9,4 13 7 32 17 NNW 1030,9 20 27 0,0
20.03.2019 18:00:00 12,4 -1,9 13,5 8,7 9,4 22 12 46 25 N 1030,1 20 60 0,0
20.03.2019 17:00:00 13,2 -1,9 16,8 8,6 9,4 25 14 44 24 N 1029,8 20 60 0,0
20.03.2019 16:00:00 13,4 -2,2 17,3 8,4 9,4 27 14 46 25 N 1029,9 20 60 0,0
20.03.2019 15:00:00 13,3 -2,3 18,0 8,3 9,4 27 15 50 27 N 1030,4 20 60 0,0
20.03.2019 14:00:00 13,1 -3,2 14,0 8,2 9,4 30 16 46 25 N 1031,0 20 60 0,0
20.03.2019 13:00:00 12,7 -2,8 13,7 8,1 9,4 28 15 52 28 N 1031,3 20 60 0,0
20.03.2019 12:00:00 11,5 -3,5 16,1 8,1 9,4 34 18 53 28 N 1031,7 20 60 0,0
20.03.2019 11:00:00 10,4 -0,7 15,1 8,1 9,4 28 15 48 26 N 1031,9 20 60 0,0
20.03.2019 10:00:00 9,4 -0,5 12,6 8,2 9,4 22 12 36 20 N 1032,0 20 60 0,0
20.03.2019 09:00:00 7,7 -0,8 7,3 8,2 9,4 16 9 29 16 N 1032,0 20 60 0,0
20.03.2019 08:00:00 5,7 -1,0 2,2 8,3 9,4 12 6 21 11 N 1032,0 20 54 0,0
20.03.2019 07:00:00 3,9 -1,9 -0,5 8,5 9,4 10 6 23 12 NNW 1031,7 20 0 0,0
20.03.2019 06:00:00 2,6 -2,1 0,0 8,6 9,4 6 4 19 10 NNW 1031,7 20 0 0,0
20.03.2019 05:00:00 4,0 -1,6 0,7 8,6 9,4 11 6 19 10 N 1031,1 20 0 0,0
20.03.2019 04:00:00 3,8 -1,8 1,3 8,7 9,4 6 4 27 15 NNW 1031,2 20 0 0,0
20.03.2019 03:00:00 4,9 -1,3 2,8 8,8 9,4 16 9 27 15 N 1031,0 20 0 0,0
20.03.2019 02:00:00 5,0 -1,3 3,0 8,8 9,4 13 7 24 13 N 1031,0 20 0 0,0
20.03.2019 01:00:00 5,8 -1,1 3,9 8,9 9,4 13 7 26 14 NNW 1030,9 20 0 0,0
20.03.2019 00:00:00 6,7 -1,0 5,0 9,0 9,4 16 8 31 17 N 1030,7 20 0 0,0
19.03.2019 23:00:00 7,0 -1,2 5,2 9,0 9,4 16 9 29 16 N 1030,3 20 0 0,0
19.03.2019 22:00:00 7,4 -1,3 5,3 9,0 9,4 13 7 25 13 NNW 1029,9 20 0 0,0
19.03.2019 21:00:00 7,7 -1,3 5,1 9,0 9,4 11 6 23 12 NNW 1029,3 20 0 0,0
19.03.2019 20:00:00 8,0 -1,5 5,4 9,0 9,4 8 4 19 10 NNW 1028,9 20 0 0,0
19.03.2019 19:00:00 9,5 -1,3 8,0 8,9 9,4 12 7 35 19 N 1028,4 20 29 0,0
19.03.2019 18:00:00 10,9 -1,5 10,9 8,8 9,4 20 11 35 19 N 1027,6 20 48 0,0
19.03.2019 17:00:00 11,1 -1,3 11,3 8,7 9,4 19 10 35 19 N 1027,1 20 45 0,0
19.03.2019 16:00:00 11,2 -0,3 11,3 8,6 9,4 16 9 39 21 N 1027,0 20 33 0,0
19.03.2019 15:00:00 11,4 -0,4 14,1 8,5 9,4 19 10 36 19 N 1026,8 20 56 0,0
19.03.2019 14:00:00 11,0 -1,8 10,3 8,3 9,4 22 12 39 21 N 1027,1 19 42 0,0
19.03.2019 13:00:00 10,7 2,0 10,1 8,2 9,4 19 10 35 19 N 1027,2 20 29 0,0
19.03.2019 12:00:00 9,9 2,0 14,4 8,2 9,4 18 10 31 17 N 1027,3 19 54 0,0
19.03.2019 11:00:00 9,3 2,4 13,6 8,2 9,4 18 10 30 16 N 1027,3 20 60 0,0
19.03.2019 10:00:00 7,9 1,9 11,0 8,3 9,4 21 11 34 19 N 1027,3 20 60 0,0
19.03.2019 09:00:00 6,6 1,9 5,7 8,3 9,4 21 11 31 17 N 1026,9 20 60 0,0
19.03.2019 08:00:00 4,2 1,4 1,9 8,5 9,4 13 7 26 14 WNW 1026,7 20 52 0,0
19.03.2019 07:00:00 2,8 0,7 1,4 8,5 9,4 11 6 16 9 NW 1026,3 20 0 0,0
19.03.2019 06:00:00 3,3 0,5 1,9 8,6 9,4 11 6 18 10 NW 1026,0 20 0 0,0
19.03.2019 05:00:00 3,8 0,8 1,8 8,7 9,4 11 6 19 10 NW 1025,5 20 0 0,0
19.03.2019 04:00:00 3,9 0,6 2,5 8,8 9,4 10 5 24 13 WNW 1025,1 20 0 0,0
19.03.2019 03:00:00 4,2 0,9 0,2 8,9 9,4 13 7 22 12 NW 1025,0 20 0 0,0
19.03.2019 02:00:00 4,4 1,1 2,5 8,9 9,4 6 3 21 11 N 1025,2 20 0 0,0
19.03.2019 01:00:00 4,9 0,7 3,6 9,0 9,4 15 8 22 12 NW 1024,9 20 0 0,0
19.03.2019 00:00:00 4,3 1,0 2,8 9,1 9,4 15 8 20 11 NW 1025,2 20 0 0,0
18.03.2019 23:00:00 4,3 1,5 2,5 9,1 9,3 11 6 16 9 WNW 1025,2 20 0 0,0
18.03.2019 22:00:00 5,2 2,4 3,0 9,2 9,4 3 2 13 7 W 1025,4 20 0 0,0
18.03.2019 21:00:00 6,3 2,0 4,8 9,2 9,4 6 4 35 19 N 1025,3 20 0 0,0
18.03.2019 20:00:00 6,8 2,1 2,9 9,2 9,3 3 1 10 5 WNW 1024,8 20 0 0,0
18.03.2019 19:00:00 7,2 1,7 3,9 9,1 9,3 5 3 11 6 NNE 1024,0 20 0 0,0
18.03.2019 18:00:00 9,0 1,4 9,0 9,1 9,3 6 3 18 10 NW 1023,5 20 44 0,0
18.03.2019 17:00:00 8,9 2,5 8,8 9,0 9,3 13 7 23 12 WNW 1023,3 20 2 0,0

tt = temperature
td = dewpoint
tt 5cm = temperature 5cm
tt -20cm = temperature -20cm
tt -100cm = temperature -100cm
ff = wind speed
fx = gusts
dd = wind direction
ppp = reduced air pressure
vv = visibility
sd = sunshine duration
rr = precipitation

Next stations